Location: Treviso
(45.6669°N, 12.2430°E)
Time: 10:01:46
(UTC+02:00)

CUBESAT XI-V - Pass Details

Date: 05 May 2019
Orbit: 668 x 694 km, 98.0° (Epoch: 24 May)

Event Time Altitude Azimuth Distance (km) Brightness Sun altitude
Exits shadow 02:15:47 - 111° (ESE) 2,618 ? -26.3°
Reaches altitude 10° 02:17:33 10° 96° (E) 2,126 ? -26.2°
Maximum altitude 02:20:16 16° 60° (ENE) 1,774 ? -26.1°
Drops below altitude 10° 02:22:59 10° 24° (NNE) 2,125 ? -25.9°
Sets 02:26:01 0° 3° (N) 3,040 ? -25.7°
